Погода в Сырдарье

Узбекистан     40°50′19″N   68°39′51″E
темп.,
°C
ветер,
м/с
пор.,
м/с
влажн.,
%
обл.,
%
осадки,
мм/ч
давл.,
гПа
погр.,
м
19 января, ср
ср1923:00+9зюз1175100 0.0 101017
02:00+9ююв2376100 0.1 101089
05:00+8ююз2279100 0.5 101152
08:00+9з81964100 1.6 10141199
11:00+8з7165598 1.6 10181367
14:00+8з8154597 0.0 10201484
17:00+7зюз6124736 0.0 10211436
20:00+5з256622 0.0 1024201
20 января, чт
чт2023:00+2с367642 0.0 1026215
02:00+3с237397 0.0 1026194
05:00+1с22795 0.0 102628
08:000св22825 0.0 102633
11:00+5всв33570 0.0 1024429
14:00+8св22430 0.0 1020730
17:00+8св22380 0.0 101844
20:00+5ссв33470 0.0 101626
21 января, пт
пт2123:00+4св22490 0.0 101417
02:00+3всв22490 0.0 101119
05:00+2с12470 0.0 100911
08:00+1з22500 0.0 101016
11:00+7вюв22370 0.0 1010254
14:00+11вюв45263 0.0 1008629
17:00+10юв113029 0.0 100911
20:00+8ююв3540100 0.0 101258
22 января, сб
сб2223:00+7ю4850100 0.0 1014110
02:00+5зсз2267100 0.0 101727
05:00+5сз2570100 0.0 1020152
08:00+4ссз2571100 0.0 1022208
11:00+3ссз1295100 0.6 1025350
14:00+3ссз1297100 1.6 1025421
17:00+2ссв2298100 2.3 1026351
20:00+2ссв2295100 0.2 1027309
23 января, вс
вс2323:00+2св1187100 0.2 1027275
02:00+2св1185100 0.0 1026139
05:00+2ссз2284100 0.0 1026115
08:00+1с238498 0.0 1027266
11:00+3ссв226953 0.1 1027548
14:00+6ссв225680 0.0 10251058
17:00+6с225399 0.0 10251162
20:00+5с2358100 0.0 1026201